カタログに戻る

RROCI-2

運用中科学SSO
NORAD 59106·PAYLOAD·🇺🇸 United States

打ち上げ Mar 4, 2024 から Vandenberg Space Force Base

Loading…

次のパス (今後24時間)

TLE

最新Source: Space-Track

元期: Sep 14, 2026, 04:03 UTC

1 59106U 24043J   26257.16883921  .00001774  00000-0  14641-3 0  9992
2 59106  97.8529  30.7185 0016218  91.2779 269.0303 15.00238484138101

AllMySatでRROCI-2をリアルタイム追跡

Download on the App Store